[[{"header":{"parameterUnit":"m.s-1","parameterCategory":2,"la1":30.2991,"la2":30.254,"lo1":-89.0895,"lo2":-89.0444,"dy":0.0017,"dx":0.0017,"nx":28,"ny":28,"refTime":"2024-08-29T09:00:00:Z","depth":"0","parameterNumber":2,"parameterNumberName":"U-component_of_CURRENTS"},"data":[0,0,0,0,0,0,0,0,0,0,0,0,0,0,0,0,0,0,0,0,0,0,0,0,0,0,0,0,0,0,0,0,0,0,0,0,0,0,0,0,0,0,0,0,0,0,0,0,0,0,0,0,0,0,0,0,0,0,0.3018,0.3019,0,0.3048,0.3048,0.3048,0.3035,0.3035,0.3034,0.3034,0.3022,0.3022,0.3022,0,0,0,0,0,0,0,0,0,0,0,0,0,0.2961,0.2962,0.3018,0.3019,0.3019,0.3048,0.3048,0.3048,0.3035,0.3035,0.3034,0.3034,0.3022,0.3022,0.3022,0,0,0,0,0,0,0,0,0,0,0,0,0,0.2985,0.2962,0.3018,0.3019,0.302,0.3048,0.3048,0.3048,0.3035,0.3035,0.3034,0.3033,0.3022,0.3022,0.3022,0.3034,0,0,0.3022,0.3022,0,0,0,0,0,0,0,0,0.2983,0.2986,0.3018,0.3019,0.302,0.304,0.3024,0.3042,0.3035,0.3026,0.3034,0.3033,0.3027,0.3026,0.3029,0.3034,0.3033,0.3022,0.3022,0.3022,0.3022,0,0,0,0,0,0,0,0.2982,0.2985,0.3026,0.3019,0.302,0.3022,0.3024,0.3027,0.3026,0.3026,0.3026,0.3036,0.3026,0.3029,0.3028,0.3033,0.3022,0.3022,0.3022,0.3022,0.3094,0.3096,0,0,0,0,0,0,0.2985,0.2984,0.3025,0.3027,0.3004,0.3024,0.3026,0.3031,0.3027,0.3027,0.3036,0.3035,0.3029,0.3028,0.3028,0.3077,0.3022,0.3022,0.3022,0.3092,0.3095,0.3097,0,0,0,0,0,0,0.2984,0.2989,0.3024,0.3009,0.3014,0.3026,0.3032,0.3032,0.3038,0.3035,0.3033,0.3042,0.3029,0.3028,0.3043,0.3075,0.3022,0.3022,0.309,0.3093,0.3096,0.3154,0,0,0,0,0,0,0.2982,0.2988,0.2992,0.3009,0.3015,0.305,0.3033,0.3033,0.3046,0.3045,0.304,0.3038,0.3028,0.3044,0.3044,0.3074,0.3022,0.3088,0.3091,0.3095,0.315,0.3158,0.3166,0,0,0,0,0,0.298,0.2991,0.2992,0.2997,0.3021,0.3051,0.3054,0.3058,0.3047,0.3058,0.3057,0.3038,0.3066,0.3045,0.3044,0.3076,0.3086,0.309,0.3094,0.3146,0.3157,0.3166,0,0,0,0,0,0,0.2965,0.2991,0.2993,0.301,0.3033,0.305,0.3063,0.3063,0.3071,0.3069,0.3055,0.3054,0.3088,0.3074,0.3051,0.311,0.3076,0.308,0.3116,0.3125,0.3133,0.3141,0.3022,0,0,0,0,0,0.2966,0.2982,0.3007,0.3022,0.3036,0.305,0.3061,0.3067,0.3078,0.308,0.3078,0.3084,0.3106,0.3107,0.3123,0.3142,0.3146,0.3166,0.3175,0.3181,0.319,0.323,0.3243,0.311,0.311,0.311,0,0,0.2964,0.2982,0.299,0.3021,0.3038,0.3064,0.3055,0.3081,0.3103,0.3079,0.3103,0.3115,0.3122,0.3157,0.3169,0.3144,0.3222,0.3187,0.3192,0.3197,0.3236,0.3249,0.326,0.3113,0.3113,0.3112,0,0,0.2974,0.2987,0.3006,0.303,0.3065,0.3078,0.3088,0.3113,0.3125,0.3152,0.3154,0.3185,0.3196,0.3218,0.3228,0.3289,0.3273,0.3294,0.3328,0.3367,0.3378,0.3388,0.3411,0.3422,0.3286,0.3286,0.3286,0,0.297,0.2994,0.3016,0.3044,0.3067,0.3086,0.3113,0.3135,0.316,0.3184,0.3167,0.3229,0.3231,0.3288,0.3312,0.3308,0.3319,0.3286,0.3377,0.3387,0.3396,0.3417,0.3429,0.3289,0.3289,0.3289,0.3288,0,0.2993,0.3017,0.3034,0.3074,0.3102,0.3131,0.3168,0.3202,0.3216,0.3236,0.3298,0.331,0.3345,0.3358,0.335,0.3423,0.3407,0.3391,0.3349,0.3413,0.3431,0.3442,0.3294,0.3293,0.3292,0.3291,0,0,0.2968,0.3036,0.3039,0.3065,0.312,0.3144,0.3202,0.3258,0.3296,0.3329,0.3377,0.343,0.3438,0.3452,0.3455,0.3484,0.3556,0.3462,0.3463,0.3479,0.3637,0.3616,0.3625,0.3554,0.3556,0.3558,0.3624,0,0.2976,0.3026,0.3061,0.3109,0.314,0.3191,0.3239,0.3296,0.334,0.3392,0.3434,0.3474,0.3472,0.3487,0.3527,0.3557,0.3588,0.3539,0.3578,0.3579,0.3548,0.3639,0.3527,0.3576,0.3634,0.3636,0.3638,0,0.2978,0.3016,0.3059,0.3133,0.3151,0.318,0.3268,0.3316,0.3407,0.3437,0.3501,0.353,0.3603,0.3571,0.3667,0.3635,0.3646,0.3656,0.3658,0.3626,0.3579,0.3523,0.3593,0.351,0.3654,0.3653,0.3652,0,0.2936,0.3012,0.3042,0.3066,0.3152,0.3187,0.3235,0.3327,0.3376,0.3465,0.3514,0.3591,0.3639,0.368,0.3731,0.3699,0.3818,0.3773,0.3764,0.3761,0.3668,0.3654,0.3657,0.3833,0.3833,0.3832,0.3832,0,0.2921,0.2946,0.3023,0.3038,0.3084,0.3158,0.3212,0.328,0.3373,0.3435,0.3528,0.3594,0.3671,0.3754,0.3764,0.3822,0.3855,0.3797,0.3791,0.3686,0.3673,0.3596,0.3559,0.3835,0.3834,0.3834,0.3833,0,0.2858,0.2909,0.2947,0.3032,0.3059,0.3087,0.3182,0.3225,0.3335,0.3424,0.3457,0.3615,0.3729,0.3807,0.3881,0.3875,0.381,0.3911,0.378,0.3758,0.3646,0.3617,0.3477,0.3372,0.3905,0.3905,0.3905,0,0.2825,0.2841,0.2915,0.2932,0.2964,0.3021,0.3058,0.3173,0.323,0.3433,0.3474,0.3639,0.3731,0.3868,0.3895,0.3935,0.381,0.3833,0.3754,0.3653,0.3616,0.345,0.3359,0.365,0.3648,0.3646,0.3645,0,0.2772,0.2793,0.2824,0.2859,0.2891,0.2927,0.3002,0.3039,0.3191,0.3293,0.3433,0.3529,0.3716,0.3736,0.383,0.3831,0.3656,0.3799,0.373,0.3462,0.3244,0.3136,0.3586,0.363,0.3632,0.3633,0.3634,0.3634,0.2724,0.2726,0.2766,0.2784,0.281,0.2822,0.2814,0.2914,0.2992,0.3113,0.3293,0.3399,0.3561,0.369,0.3669,0.3606,0.3562,0.3501,0.3488,0.3338,0.319,0.3612,0.3629,0.363,0.3632,0.3633,0.3634,0,0.2674,0.2684,0.2696,0.2702,0.2671,0.2724,0.2762,0.2738,0.2777,0.2937,0.304,0.3227,0.3287,0.3388,0.3447,0.3332,0.3137,0.3228,0.297,0.2906,0.3327,0.3271,0.3167,0.3168,0.3168,0.3168,0.3168,0.3168,0.2657,0.2642,0.2638,0.2564,0.2552,0.248,0.2467,0.2459,0.2531,0.2609,0.2716,0.2864,0.3144,0.3272,0.3208,0.312,0.2865,0.2727,0.27,0.3023,0.3046,0.3067,0.3006,0.2849,0.2849,0.2142,0.2137,0.2133]},{"header":{"parameterUnit":"m.s-1","parameterCategory":2,"la1":30.2991,"la2":30.254,"lo1":-89.0895,"lo2":-89.0444,"dy":0.0017,"dx":0.0017,"nx":28,"ny":28,"refTime":"2024-08-29T09:00:00:Z","depth":"0","parameterNumber":3,"parameterNumberName":"V-component_of_CURRENTS"},"data":[0,0,0,0,0,0,0,0,0,0,0,0,0,0,0,0,0,0,0,0,0,0,0,0,0,0,0,0,0,0,0,0,0,0,0,0,0,0,0,0,0,0,0,0,0,0,0,0,0,0,0,0,0,0,0,0,0,0,0.0158,0.0157,0,0.0097,0.0097,0.0096,0.0051,0.005,0.005,0.005,-0.0059,-0.0062,-0.0065,0,0,0,0,0,0,0,0,0,0,0,0,0,0.0194,0.0194,0.0158,0.0157,0.0157,0.0098,0.0097,0.0096,0.0051,0.005,0.005,0.005,-0.0059,-0.0062,-0.0065,0,0,0,0,0,0,0,0,0,0,0,0,0,0.016,0.0194,0.0158,0.0128,0.0125,0.0098,0.0097,0.0095,0.0051,0.005,0.005,0.005,-0.0058,-0.0061,-0.0065,-0.0082,0,0,-0.0078,-0.0079,0,0,0,0,0,0,0,0,0.0162,0.0158,0.0133,0.013,0.0127,0.0082,0.0069,0.0034,0.0051,0.0077,0.005,0.0049,-0.0015,-0.0023,-0.0035,-0.0087,-0.0092,-0.0078,-0.008,-0.0082,-0.0083,0,0,0,0,0,0,0,0.0164,0.016,0.0132,0.0133,0.0129,0.0104,0.0099,0.0062,0.0032,0.0075,0.0072,0.0068,-0.0018,-0.0031,-0.0038,-0.0093,-0.0078,-0.0081,-0.0084,-0.0085,-0.0161,-0.0161,0,0,0,0,0,0,0.0177,0.0163,0.0134,0.0131,0.0145,0.0104,0.0098,0.0096,0.0033,0.0024,0.0068,0.0066,-0.0024,-0.0033,-0.0042,-0.0053,-0.0082,-0.0086,-0.0088,-0.0162,-0.0161,-0.0161,0,0,0,0,0,0,0.0178,0.0175,0.0137,0.0146,0.014,0.0105,0.0102,0.0095,0.0083,0.0029,0.0018,0.0064,-0.0024,-0.0036,-0.0065,-0.0058,-0.0088,-0.0091,-0.0162,-0.0162,-0.0161,-0.0084,0,0,0,0,0,0,0.018,0.0176,0.018,0.0147,0.014,0.0127,0.0102,0.0094,0.0082,0.0078,0.0022,0.0011,-0.0026,-0.0058,-0.0069,-0.0064,-0.0094,-0.0163,-0.0162,-0.0161,-0.0087,-0.0081,-0.0076,0,0,0,0,0,0.0181,0.0192,0.018,0.0177,0.0146,0.0127,0.0121,0.0093,0.0082,0.008,0.0047,0.0013,-0.0062,-0.0061,-0.0073,-0.007,-0.0163,-0.0162,-0.0161,-0.009,-0.0082,-0.0076,0,0,0,0,0,0,0.021,0.0187,0.0174,0.0177,0.0156,0.012,0.012,0.0099,0.0072,0.0071,0.0017,0.0005,-0.0019,-0.0054,-0.0052,-0.009,-0.0118,-0.012,-0.006,-0.0053,-0.0048,-0.0019,-0.0098,0,0,0,0,0,0.0219,0.0221,0.0192,0.0194,0.0188,0.0155,0.0144,0.0127,0.0099,0.0086,0.0047,0.0007,-0.0025,-0.0045,-0.0081,-0.0101,-0.013,-0.0107,-0.0101,-0.0096,-0.0081,-0.012,-0.0116,-0.0158,-0.0158,-0.0158,0,0,0.0231,0.0219,0.022,0.0201,0.0183,0.0186,0.0147,0.014,0.0143,0.0078,0.0069,0.0025,-0.0026,-0.0047,-0.0061,-0.0075,-0.0099,-0.0095,-0.009,-0.0078,-0.0119,-0.0115,-0.0111,-0.0158,-0.0158,-0.0158,0,0,0.0263,0.0246,0.0261,0.0248,0.0231,0.0212,0.0214,0.0182,0.0168,0.0151,0.0109,0.0075,0.0021,-0.0011,-0.0034,-0.0019,-0.0068,-0.0035,0.0016,-0.0022,-0.0019,-0.0016,-0.0043,-0.0043,-0.0032,-0.0032,-0.0032,0,0.0278,0.0291,0.0262,0.0273,0.0272,0.023,0.0248,0.0229,0.0192,0.0187,0.0159,0.009,0.004,0.0021,0.0025,-0.0006,-0.003,-0.0005,-0.0014,-0.0012,-0.001,-0.0038,-0.004,-0.0028,-0.0029,-0.0029,-0.003,0,0.0319,0.033,0.0338,0.0341,0.0335,0.0341,0.0316,0.0314,0.0289,0.0261,0.0233,0.0167,0.0128,0.0101,0.0066,0.0054,0.0033,-0.0001,-0.0027,-0.0001,-0.0033,-0.0035,-0.0023,-0.0024,-0.0026,-0.0026,0,0,0.0359,0.0367,0.0371,0.039,0.0372,0.0378,0.0389,0.0384,0.0401,0.0344,0.0353,0.0278,0.0237,0.0208,0.0154,0.0117,0.0098,0.0071,0.0067,0.0053,0.0025,0.0018,0.0014,0.0062,0.0061,0.0061,0.0001,0,0.0401,0.0445,0.0431,0.0476,0.0499,0.0473,0.0494,0.0484,0.0455,0.0452,0.0377,0.0353,0.0279,0.0262,0.0215,0.0132,0.0093,0.0118,-0.0005,-0.0008,-0.0011,0.0011,0.005,0.0001,-0.0002,-0.0002,-0.0003,0,0.045,0.0475,0.0526,0.0564,0.0572,0.0591,0.062,0.0631,0.0608,0.0581,0.0535,0.0474,0.0418,0.0347,0.0222,0.0242,0.0146,0.0072,0.0067,0.0035,-0.002,-0.0028,-0.0005,-0.017,-0.0008,-0.0007,-0.0007,0,0.0507,0.0545,0.0593,0.06,0.0632,0.0659,0.0676,0.0672,0.0701,0.0661,0.0674,0.0575,0.055,0.0415,0.0263,0.0241,0.0127,0.0071,-0.0026,-0.0028,-0.0031,-0.0032,-0.0173,-0.0019,-0.0019,-0.0019,-0.0019,0,0.056,0.0601,0.0628,0.0656,0.0733,0.0726,0.0797,0.0795,0.0809,0.0861,0.0749,0.0771,0.0567,0.0477,0.031,0.015,0.0158,-0.0004,-0.0041,-0.0003,-0.0001,-0.0175,-0.0272,-0.0021,-0.002,-0.002,-0.002,0,0.0614,0.0628,0.0693,0.074,0.0764,0.0819,0.0889,0.0939,0.0937,0.1005,0.1003,0.0925,0.0808,0.0604,0.0393,0.0234,-0.003,-0.0005,0.0061,0.0033,-0.0218,-0.0312,-0.0487,-0.0561,-0.0122,-0.0122,-0.0123,0,0.0644,0.0685,0.076,0.0811,0.0834,0.0911,0.0976,0.0999,0.1057,0.1113,0.1161,0.1077,0.1044,0.0736,0.0431,0.0147,-0.0032,-0.0017,-0.0062,-0.0214,-0.0347,-0.042,-0.0475,-0.0038,-0.0038,-0.0038,-0.0037,0,0.0709,0.0735,0.0789,0.0893,0.0967,0.1059,0.1148,0.1222,0.1275,0.1341,0.1416,0.1401,0.1128,0.0858,0.0464,0.026,-0.0122,-0.0021,-0.02,-0.0302,-0.0369,-0.0463,-0.0016,-0.0035,-0.0035,-0.0035,-0.0036,-0.0036,0.0761,0.081,0.0887,0.0983,0.1076,0.1199,0.1288,0.1395,0.1524,0.1646,0.1618,0.1639,0.1255,0.0729,0.0421,-0.0097,-0.0124,-0.0258,-0.036,-0.0421,-0.049,-0.0028,-0.0079,-0.0079,-0.008,-0.008,-0.008,0,0.0826,0.0881,0.0973,0.1091,0.1195,0.1236,0.1401,0.1501,0.1668,0.1794,0.1861,0.1714,0.1226,0.0722,0.002,-0.0363,-0.0504,-0.0574,-0.0675,-0.0719,-0.0321,-0.0313,-0.0389,-0.0389,-0.0389,-0.0389,-0.0389,-0.0389,0.0865,0.0957,0.0997,0.1171,0.1256,0.1405,0.1506,0.1666,0.1796,0.1961,0.2006,0.201,0.165,0.0365,-0.0511,-0.0715,-0.0974,-0.1028,-0.1187,-0.0924,-0.0902,-0.0882,-0.0898,-0.1095,-0.1096,-0.1517,-0.1521,-0.1524]}],[{"header":{"parameterUnit":"m.s-1","parameterCategory":2,"la1":30.2991,"la2":30.254,"lo1":-89.0895,"lo2":-89.0444,"dy":0.0017,"dx":0.0017,"nx":28,"ny":28,"refTime":"2024-08-29T09:00:00:Z","depth":"2","parameterNumber":2,"parameterNumberName":"U-component_of_CURRENTS"},"data":[0,0,0,0,0,0,0,0,0,0,0,0,0,0,0,0,0,0,0,0,0,0,0,0,0,0,0,0,0,0,0,0,0,0,0,0,0,0,0,0,0,0,0,0,0,0,0,0,0,0,0,0,0,0,0,0,0,0,0.2732,0.2733,0,0.2764,0.2764,0.2764,0.2765,0.2765,0.2765,0.2765,0.2771,0.2772,0.2772,0,0,0,0,0,0,0,0,0,0,0,0,0,0.2678,0.2679,0.2732,0.2733,0.2733,0.2764,0.2764,0.2765,0.2765,0.2765,0.2765,0.2765,0.2771,0.2772,0.2772,0,0,0,0,0,0,0,0,0,0,0,0,0,0.2702,0.2679,0.2732,0.274,0.2741,0.2764,0.2764,0.2765,0.2765,0.2765,0.2765,0.2765,0.2771,0.2771,0.2772,0.2779,0,0,0.2773,0.2773,0,0,0,0,0,0,0,0,0.2701,0.2704,0.2738,0.2739,0.2741,0.2763,0.2748,0.2769,0.2765,0.2753,0.2765,0.2765,0.2768,0.2769,0.2772,0.2779,0.2779,0.2773,0.2774,0.2774,0.2774,0,0,0,0,0,0,0,0.2699,0.2702,0.2742,0.2739,0.274,0.2744,0.2747,0.2752,0.2759,0.2754,0.2755,0.2763,0.2768,0.2771,0.2772,0.2779,0.2773,0.2774,0.2774,0.2774,0.285,0.2852,0,0,0,0,0,0,0.2701,0.2701,0.2741,0.2743,0.2723,0.2745,0.2748,0.2754,0.2759,0.2761,0.2763,0.2763,0.2771,0.2771,0.2772,0.2827,0.2774,0.2774,0.2774,0.2848,0.285,0.2852,0,0,0,0,0,0,0.2699,0.2704,0.274,0.2725,0.273,0.2747,0.2753,0.2755,0.2768,0.2767,0.2767,0.2776,0.277,0.2771,0.2793,0.2825,0.2774,0.2775,0.2846,0.2849,0.2851,0.2907,0,0,0,0,0,0,0.2698,0.2703,0.2711,0.2725,0.2731,0.2764,0.2753,0.2755,0.2774,0.2774,0.2778,0.2778,0.277,0.2792,0.2793,0.2825,0.2775,0.2844,0.2847,0.2851,0.2903,0.2911,0.2918,0,0,0,0,0,0.2695,0.2706,0.2711,0.2716,0.274,0.2766,0.2769,0.2778,0.2775,0.2787,0.2792,0.2778,0.2814,0.2794,0.2795,0.2827,0.2842,0.2846,0.285,0.29,0.291,0.2918,0,0,0,0,0,0,0.2684,0.2708,0.2713,0.273,0.2752,0.2767,0.2782,0.2786,0.28,0.2803,0.2794,0.2795,0.2832,0.2822,0.2799,0.2861,0.2829,0.2833,0.2866,0.2876,0.2883,0.2888,0.2775,0,0,0,0,0,0.2686,0.2703,0.2725,0.2741,0.2755,0.277,0.2783,0.2792,0.2805,0.2811,0.2815,0.2826,0.2848,0.2854,0.287,0.2893,0.2898,0.2918,0.2926,0.2932,0.2939,0.2979,0.2991,0.2865,0.2865,0.2865,0,0,0.2686,0.2703,0.2711,0.274,0.2758,0.2781,0.2777,0.2805,0.2827,0.281,0.2841,0.2855,0.2863,0.2899,0.2915,0.2893,0.2972,0.2937,0.2943,0.2946,0.2985,0.2997,0.3008,0.2868,0.2867,0.2867,0,0,0.2694,0.2711,0.2728,0.2751,0.2786,0.2799,0.281,0.2836,0.2852,0.2883,0.2887,0.292,0.2938,0.2958,0.2968,0.3027,0.3017,0.3035,0.307,0.3109,0.312,0.3129,0.3153,0.3164,0.3031,0.3031,0.3031,0,0.2693,0.2716,0.2738,0.2763,0.2785,0.2808,0.2833,0.2856,0.2885,0.291,0.2901,0.2965,0.2969,0.3024,0.3047,0.3045,0.3059,0.3031,0.3119,0.3128,0.3136,0.3158,0.317,0.3035,0.3034,0.3034,0.3034,0,0.2712,0.2736,0.2752,0.2789,0.2816,0.2845,0.2881,0.2916,0.2937,0.296,0.3023,0.3038,0.3077,0.3089,0.3084,0.3155,0.3144,0.3129,0.3092,0.3152,0.3172,0.3183,0.3039,0.3038,0.3037,0.3036,0,0,0.2689,0.2752,0.2755,0.2779,0.2834,0.2854,0.2911,0.2965,0.3005,0.3044,0.3095,0.3145,0.3162,0.3176,0.3183,0.3212,0.3285,0.3198,0.3198,0.3216,0.3369,0.333,0.3337,0.3287,0.3289,0.3291,0.3358,0,0.2697,0.2738,0.2772,0.2817,0.2843,0.2895,0.2942,0.2998,0.3045,0.3102,0.3146,0.3194,0.3192,0.3215,0.3253,0.3284,0.3316,0.3267,0.3312,0.3313,0.3267,0.335,0.3091,0.3127,0.3368,0.337,0.3371,0,0.2696,0.2727,0.2767,0.2835,0.2852,0.2886,0.2971,0.3018,0.3112,0.3148,0.3217,0.3251,0.3326,0.3298,0.339,0.3362,0.3375,0.3385,0.3388,0.3339,0.3295,0.3106,0.3137,0.3389,0.3388,0.3386,0.3385,0,0.2653,0.272,0.2751,0.2773,0.2853,0.2893,0.2943,0.3035,0.3083,0.3184,0.3235,0.3316,0.3369,0.3411,0.3457,0.343,0.3541,0.3501,0.3476,0.3473,0.3255,0.3229,0.3558,0.3558,0.3558,0.3558,0.3558,0,0.2637,0.266,0.2735,0.275,0.2797,0.2869,0.2934,0.2998,0.3096,0.3161,0.3257,0.3321,0.3403,0.3479,0.3492,0.3535,0.3577,0.3505,0.3499,0.3268,0.3243,0.3466,0.3454,0.3561,0.356,0.356,0.3559,0,0.258,0.2628,0.2664,0.2747,0.2775,0.2809,0.2913,0.2958,0.3071,0.3164,0.3202,0.3347,0.3454,0.3527,0.36,0.3584,0.3615,0.361,0.3332,0.3294,0.3505,0.3495,0.3588,0.3588,0.3587,0.3587,0.3587,0,0.2551,0.2566,0.264,0.2659,0.2696,0.2762,0.2804,0.292,0.2976,0.3171,0.3208,0.3364,0.3441,0.3559,0.3563,0.3592,0.3632,0.3353,0.3255,0.3529,0.3514,0.3505,0.3497,0.2982,0.2977,0.2973,0.2969,0,0.2501,0.2528,0.2557,0.2595,0.2634,0.2675,0.2755,0.2787,0.2938,0.3032,0.3155,0.3238,0.3389,0.3316,0.3386,0.3357,0.333,0.3268,0.3633,0.3026,0.2966,0.2949,0.2958,0.2931,0.2935,0.2938,0.294,0.2941,0.2459,0.2462,0.2501,0.2523,0.2558,0.2573,0.2569,0.2662,0.2729,0.2834,0.2995,0.3042,0.3109,0.309,0.3014,0.2966,0.3185,0.3027,0.3036,0.3051,0.2981,0.2924,0.2867,0.287,0.2873,0.2875,0.2878,0,0.2402,0.2414,0.2429,0.2439,0.2419,0.2483,0.2517,0.2491,0.2516,0.2649,0.2729,0.2583,0.2566,0.2626,0.2509,0.2529,0.2458,0.2413,0.2286,0.2329,0.2366,0.2255,0.1952,0.1948,0.1945,0.1942,0,0,0.2377,0.2358,0.2354,0.2294,0.23,0.2243,0.2232,0.2215,0.2264,0.2255,0.2271,0.2471,0.2582,0.2238,0.2207,0.2054,0.2162,0.1975,0.273,0.2627,0.2659,0.2751,0.2635,0,0,0,0,0]},{"header":{"parameterUnit":"m.s-1","parameterCategory":2,"la1":30.2991,"la2":30.254,"lo1":-89.0895,"lo2":-89.0444,"dy":0.0017,"dx":0.0017,"nx":28,"ny":28,"refTime":"2024-08-29T09:00:00:Z","depth":"2","parameterNumber":3,"parameterNumberName":"V-component_of_CURRENTS"},"data":[0,0,0,0,0,0,0,0,0,0,0,0,0,0,0,0,0,0,0,0,0,0,0,0,0,0,0,0,0,0,0,0,0,0,0,0,0,0,0,0,0,0,0,0,0,0,0,0,0,0,0,0,0,0,0,0,0,0,0.009,0.0089,0,0.0034,0.0033,0.0032,-0.001,-0.001,-0.001,-0.001,-0.0106,-0.0108,-0.011,0,0,0,0,0,0,0,0,0,0,0,0,0,0.0121,0.012,0.009,0.0089,0.0089,0.0034,0.0033,0.0032,-0.0009,-0.001,-0.001,-0.001,-0.0105,-0.0108,-0.0111,0,0,0,0,0,0,0,0,0,0,0,0,0,0.0089,0.012,0.009,0.0062,0.0059,0.0034,0.0033,0.0032,-0.0009,-0.001,-0.001,-0.001,-0.0104,-0.0108,-0.0111,-0.0126,0,0,-0.0122,-0.0123,0,0,0,0,0,0,0,0,0.0091,0.0088,0.0067,0.0064,0.0061,0.002,0.0009,-0.0022,-0.0009,0.0015,-0.001,-0.0011,-0.0066,-0.0073,-0.0084,-0.013,-0.0134,-0.0122,-0.0124,-0.0126,-0.0127,0,0,0,0,0,0,0,0.0093,0.009,0.0066,0.0066,0.0063,0.004,0.0035,0.0003,-0.0025,0.0013,0.001,0.0007,-0.0068,-0.0081,-0.0087,-0.0136,-0.0122,-0.0125,-0.0127,-0.0129,-0.0191,-0.019,0,0,0,0,0,0,0.0106,0.0092,0.0068,0.0064,0.0077,0.004,0.0034,0.0032,-0.0024,-0.0032,0.0007,0.0005,-0.0074,-0.0083,-0.009,-0.0096,-0.0126,-0.0129,-0.0131,-0.0191,-0.0191,-0.019,0,0,0,0,0,0,0.0107,0.0104,0.007,0.0078,0.0072,0.004,0.0038,0.0031,0.0021,-0.0027,-0.0037,0.0004,-0.0075,-0.0085,-0.0108,-0.0101,-0.013,-0.0134,-0.0192,-0.0191,-0.0191,-0.0117,0,0,0,0,0,0,0.0108,0.0105,0.0109,0.0079,0.0072,0.0062,0.0038,0.0031,0.002,0.0017,-0.0034,-0.0043,-0.0076,-0.0103,-0.0112,-0.0106,-0.0136,-0.0192,-0.0192,-0.0191,-0.012,-0.0114,-0.0109,0,0,0,0,0,0.0109,0.012,0.0109,0.0107,0.0079,0.0063,0.0057,0.0032,0.002,0.002,-0.001,-0.0041,-0.0104,-0.0105,-0.0116,-0.0111,-0.0193,-0.0192,-0.0191,-0.0123,-0.0115,-0.0109,0,0,0,0,0,0,0.0135,0.0116,0.0104,0.0108,0.0089,0.0057,0.0056,0.0038,0.0013,0.0013,-0.0036,-0.0047,-0.0065,-0.0097,-0.0096,-0.0127,-0.0154,-0.0155,-0.0099,-0.0092,-0.0087,-0.0063,-0.0139,0,0,0,0,0,0.0143,0.0147,0.0121,0.0125,0.0119,0.0088,0.0079,0.0064,0.0039,0.0028,-0.0008,-0.0042,-0.007,-0.0086,-0.0118,-0.0133,-0.0163,-0.0138,-0.0132,-0.0127,-0.0115,-0.0154,-0.0151,-0.0187,-0.0187,-0.0187,0,0,0.0154,0.0145,0.0146,0.0131,0.0115,0.0118,0.0082,0.0076,0.008,0.0021,0.0014,-0.0025,-0.007,-0.0086,-0.0097,-0.011,-0.0132,-0.0126,-0.0121,-0.0111,-0.0153,-0.0149,-0.0146,-0.0186,-0.0186,-0.0187,0,0,0.0184,0.017,0.0185,0.0175,0.016,0.0143,0.0145,0.0117,0.0105,0.0091,0.0053,0.0024,-0.0023,-0.005,-0.007,-0.0053,-0.0101,-0.0067,-0.0019,-0.0058,-0.0055,-0.0053,-0.0082,-0.0083,-0.0063,-0.0063,-0.0063,0,0.0199,0.0212,0.0186,0.0198,0.0198,0.016,0.0178,0.0162,0.013,0.0125,0.01,0.0039,-0.0004,-0.0018,-0.0013,-0.004,-0.0066,-0.004,-0.0049,-0.0048,-0.0047,-0.0078,-0.008,-0.006,-0.006,-0.006,-0.0061,0,0.0237,0.0249,0.0257,0.0261,0.0258,0.0265,0.0245,0.0242,0.022,0.0195,0.0171,0.0114,0.0078,0.0057,0.0026,0.0015,-0.0007,-0.0038,-0.0063,-0.0039,-0.0073,-0.0077,-0.0054,-0.0056,-0.0057,-0.0058,0,0,0.0271,0.0283,0.0287,0.0305,0.0293,0.03,0.0312,0.0308,0.0322,0.0273,0.0279,0.0218,0.0178,0.0154,0.0106,0.0072,0.005,0.0028,0.0024,0.0005,-0.0027,-0.0043,-0.0049,0.0016,0.0016,0.0016,-0.0052,0,0.031,0.0354,0.0344,0.0387,0.041,0.0387,0.0408,0.04,0.0373,0.0368,0.0303,0.0282,0.0218,0.0203,0.016,0.0081,0.0043,0.0072,-0.0054,-0.0057,-0.0069,-0.0053,-0.0019,-0.0076,-0.0056,-0.0057,-0.0057,0,0.0354,0.038,0.0429,0.0467,0.0475,0.0494,0.052,0.0531,0.0508,0.0484,0.0442,0.0387,0.0336,0.0275,0.0154,0.0176,0.0085,0.0016,0.0011,-0.0029,-0.0079,-0.01,-0.0084,-0.0064,-0.0063,-0.0063,-0.0062,0,0.0404,0.0443,0.0488,0.0497,0.0529,0.0552,0.0571,0.0566,0.0591,0.0555,0.0563,0.0475,0.0449,0.0324,0.0181,0.0166,0.0047,0.0002,-0.0097,-0.01,-0.0107,-0.011,-0.0085,-0.0085,-0.0085,-0.0084,-0.0084,0,0.0452,0.049,0.0517,0.0544,0.0613,0.0612,0.0673,0.0673,0.0685,0.0729,0.063,0.0643,0.0461,0.037,0.0219,0.0061,0.007,-0.008,-0.0116,-0.0081,-0.008,-0.0101,-0.0102,-0.0087,-0.0086,-0.0086,-0.0085,0,0.0496,0.0511,0.0572,0.0618,0.0639,0.0689,0.0754,0.0798,0.0796,0.0852,0.085,0.0773,0.0654,0.0467,0.0269,0.0126,-0.0039,-0.0102,-0.0042,-0.007,-0.0171,-0.0168,-0.022,-0.0221,-0.0222,-0.0223,-0.0223,0,0.0521,0.0558,0.0629,0.0674,0.0695,0.0766,0.0824,0.085,0.0901,0.0941,0.0981,0.089,0.0844,0.0547,0.0275,0.0011,-0.0034,-0.0139,-0.0169,-0.0154,-0.0184,-0.0179,-0.0174,-0.0152,-0.0152,-0.0152,-0.0152,0,0.0572,0.0596,0.0645,0.074,0.0806,0.0891,0.0973,0.1034,0.1084,0.1134,0.1184,0.1153,0.0891,0.063,0.0267,0.009,-0.0097,-0.0148,-0.0146,-0.0121,-0.0095,-0.0123,-0.012,-0.0152,-0.0152,-0.0152,-0.0152,-0.0152,0.061,0.0651,0.0719,0.0806,0.0894,0.1005,0.1081,0.1174,0.1279,0.1368,0.1335,0.13,0.1009,0.0552,0.0234,-0.0098,-0.0087,-0.021,-0.0208,-0.0206,-0.0183,-0.0161,-0.0226,-0.0226,-0.0226,-0.0227,-0.0227,0,0.0651,0.0699,0.0782,0.0888,0.0986,0.1032,0.1176,0.1253,0.1383,0.1471,0.1508,0.124,0.095,0.061,0.0121,-0.0173,-0.0192,-0.0267,-0.0228,-0.0225,-0.0223,-0.0201,-0.0248,-0.025,-0.0251,-0.0251,0,0,0.0674,0.0748,0.0785,0.0939,0.1025,0.116,0.1247,0.1369,0.1462,0.1541,0.1535,0.1486,0.1073,0.0713,0.0314,0.003,-0.0028,-0.0022,0.0031,0.0129,0.0134,-0.0153,-0.011,0,0,0,0,0]}],[{"header":{"parameterUnit":"m.s-1","parameterCategory":2,"la1":30.2991,"la2":30.254,"lo1":-89.0895,"lo2":-89.0444,"dy":0.0017,"dx":0.0017,"nx":28,"ny":28,"refTime":"2024-08-29T09:00:00:Z","depth":"4","parameterNumber":2,"parameterNumberName":"U-component_of_CURRENTS"},"data":[0,0,0,0,0,0,0,0,0,0,0,0,0,0,0,0,0,0,0,0,0,0,0,0,0,0,0,0,0,0,0,0,0,0,0,0,0,0,0,0,0,0,0,0,0,0,0,0,0,0,0,0,0,0,0,0,0,0,0.1779,0.178,0,0.1847,0.1848,0.1848,0.1906,0.1907,0.1907,0.1908,0.1984,0.1985,0.1986,0,0,0,0,0,0,0,0,0,0,0,0,0,0.1695,0.1696,0.1779,0.178,0.1781,0.1847,0.1848,0.1848,0.1906,0.1907,0.1908,0.1909,0.1983,0.1985,0.1986,0,0,0,0,0,0,0,0,0,0,0,0,0,0.1742,0.1697,0.1779,0.1819,0.1824,0.1847,0.1848,0.1849,0.1905,0.1907,0.1908,0.1909,0.1983,0.1985,0.1987,0.1974,0,0,0.1992,0.1993,0,0,0,0,0,0,0,0,0.1739,0.1745,0.1812,0.1816,0.1821,0.1871,0.1846,0.1892,0.1905,0.1872,0.1908,0.191,0.1947,0.1952,0.1959,0.1978,0.1981,0.1993,0.1994,0.1994,0.1995,0,0,0,0,0,0,0,0.1736,0.1742,0.1804,0.1813,0.1819,0.1832,0.184,0.1855,0.1901,0.1875,0.188,0.189,0.195,0.1957,0.1961,0.1982,0.1992,0.1994,0.1995,0.1996,0.2113,0.2115,0,0,0,0,0,0,0.1731,0.1739,0.1802,0.1806,0.1785,0.1833,0.1842,0.1852,0.1901,0.191,0.1889,0.1893,0.1953,0.1959,0.1964,0.2056,0.1994,0.1996,0.1997,0.2111,0.2113,0.2115,0,0,0,0,0,0,0.1729,0.1735,0.1799,0.1776,0.1785,0.1833,0.1845,0.1853,0.19,0.1911,0.192,0.1932,0.1955,0.1962,0.2015,0.2056,0.1997,0.1999,0.2108,0.2111,0.2114,0.2174,0,0,0,0,0,0,0.1726,0.1734,0.1758,0.1775,0.1786,0.1837,0.1844,0.1853,0.1902,0.1909,0.195,0.1956,0.1956,0.2012,0.2016,0.2057,0.2,0.2106,0.211,0.2113,0.2169,0.2178,0.2186,0,0,0,0,0,0.1722,0.1742,0.1759,0.1768,0.1812,0.1839,0.1846,0.1882,0.1904,0.1928,0.1962,0.1957,0.2039,0.2015,0.202,0.2062,0.2104,0.2109,0.2113,0.2165,0.2176,0.2186,0,0,0,0,0,0,0.1719,0.1751,0.1769,0.18,0.183,0.185,0.1882,0.1903,0.1948,0.1969,0.1977,0.1986,0.2049,0.2048,0.2021,0.2108,0.2073,0.2078,0.2111,0.2121,0.213,0.2129,0.2002,0,0,0,0,0,0.1728,0.1756,0.1783,0.1813,0.1832,0.1865,0.1889,0.1914,0.1946,0.1969,0.1998,0.2032,0.2064,0.2087,0.2112,0.2154,0.2158,0.2187,0.2196,0.2203,0.2207,0.225,0.2262,0.213,0.213,0.213,0,0,0.1735,0.1758,0.1776,0.1816,0.1845,0.1874,0.1883,0.1931,0.1965,0.1969,0.2038,0.2065,0.2083,0.2136,0.2164,0.2145,0.2244,0.2209,0.2214,0.2215,0.2256,0.2269,0.228,0.2133,0.2132,0.2132,0,0,0.1749,0.1787,0.1811,0.184,0.1891,0.1909,0.1931,0.1975,0.2012,0.2068,0.2087,0.2139,0.2185,0.2208,0.2222,0.2291,0.2289,0.2309,0.235,0.2392,0.2403,0.2413,0.2437,0.2449,0.2312,0.2312,0.2312,0,0.1761,0.1791,0.1824,0.1853,0.1883,0.1928,0.1959,0.1997,0.2056,0.2093,0.2103,0.2197,0.2216,0.2277,0.2307,0.231,0.233,0.2308,0.2402,0.2412,0.2421,0.2444,0.2455,0.2315,0.2315,0.2314,0.2314,0,0.1778,0.1819,0.1839,0.1889,0.1925,0.1964,0.2013,0.2069,0.2119,0.2154,0.2243,0.2274,0.2331,0.2349,0.2351,0.243,0.2422,0.2408,0.2373,0.2438,0.2458,0.2469,0.232,0.2319,0.2318,0.2317,0,0,0.1757,0.1836,0.1846,0.1879,0.1952,0.1977,0.205,0.2117,0.2175,0.2243,0.2313,0.2379,0.2414,0.2433,0.2451,0.2487,0.2569,0.2483,0.2484,0.2501,0.2663,0.2499,0.2495,0.2578,0.2581,0.2582,0.2652,0,0.1765,0.1818,0.1859,0.1921,0.1953,0.2023,0.208,0.2154,0.2224,0.2305,0.2364,0.2437,0.244,0.2484,0.2526,0.2565,0.2601,0.2551,0.2603,0.2604,0.2445,0.2503,0.259,0.266,0.2663,0.2664,0.2666,0,0.1759,0.1799,0.1857,0.1942,0.1964,0.2016,0.2125,0.2185,0.2302,0.2359,0.2447,0.2497,0.2587,0.2569,0.2669,0.2644,0.2665,0.2678,0.268,0.2512,0.246,0.2582,0.2685,0.2684,0.2682,0.2681,0.268,0,0.1709,0.1794,0.1843,0.1873,0.1974,0.2033,0.2101,0.2214,0.2275,0.241,0.2472,0.2572,0.2644,0.2691,0.2742,0.2722,0.2829,0.2798,0.2665,0.2654,0.2753,0.2742,0.2858,0.2858,0.2858,0.2858,0.2857,0,0.1678,0.1722,0.1836,0.1861,0.1933,0.2022,0.2114,0.2196,0.2317,0.2391,0.2508,0.2567,0.2684,0.2756,0.2774,0.2756,0.2862,0.2678,0.2663,0.2777,0.2768,0.2761,0.2749,0.286,0.286,0.2859,0.2859,0,0.1609,0.1683,0.1746,0.1868,0.1911,0.1969,0.2109,0.2167,0.2304,0.2407,0.2457,0.26,0.2692,0.2775,0.2857,0.2784,0.2785,0.275,0.2877,0.2867,0.2573,0.2564,0.2597,0.2592,0.2587,0.2584,0.2581,0,0.1572,0.1602,0.1734,0.1775,0.1839,0.194,0.2,0.2142,0.22,0.2399,0.2427,0.2579,0.266,0.2639,0.2735,0.2754,0.2722,0.2698,0.2618,0.2566,0.2548,0.2546,0.2542,0.2574,0.2572,0.2571,0.257,0,0.1503,0.157,0.1622,0.1705,0.178,0.1842,0.1947,0.1969,0.2136,0.2282,0.234,0.2391,0.2487,0.2534,0.2575,0.258,0.2696,0.2651,0.2659,0.2584,0.2538,0.2524,0.2526,0.2555,0.2557,0.2559,0.2559,0,0.1458,0.1476,0.1558,0.1614,0.1696,0.172,0.1788,0.1854,0.1924,0.214,0.2154,0.2317,0.246,0.2445,0.248,0.2478,0.2434,0.2338,0.2361,0.2379,0.2275,0.2183,0.2082,0,0,0,0,0,0.1403,0.1409,0.1457,0.1504,0.1576,0.1626,0.1735,0.1807,0.1968,0.1954,0.2047,0.2124,0.2182,0.2253,0.2208,0.2387,0.2446,0.2323,0.2348,0.2471,0.2488,0.2385,0,0,0,0,0,0,0.1363,0.1408,0.1417,0.1397,0.1411,0.1472,0.1538,0.1649,0.1642,0.1819,0.1855,0.1994,0.2075,0.2192,0.2169,0.2193,0.2163,0.2424,0.2419,0.2461,0.2477,0.2491,0.2391,0,0,0,0,0]},{"header":{"parameterUnit":"m.s-1","parameterCategory":2,"la1":30.2991,"la2":30.254,"lo1":-89.0895,"lo2":-89.0444,"dy":0.0017,"dx":0.0017,"nx":28,"ny":28,"refTime":"2024-08-29T09:00:00:Z","depth":"4","parameterNumber":3,"parameterNumberName":"V-component_of_CURRENTS"},"data":[0,0,0,0,0,0,0,0,0,0,0,0,0,0,0,0,0,0,0,0,0,0,0,0,0,0,0,0,0,0,0,0,0,0,0,0,0,0,0,0,0,0,0,0,0,0,0,0,0,0,0,0,0,0,0,0,0,0,0.0084,0.0084,0,0.0046,0.0046,0.0045,0.0015,0.0015,0.0014,0.0014,-0.0052,-0.0054,-0.0056,0,0,0,0,0,0,0,0,0,0,0,0,0,0.0101,0.0101,0.0084,0.0084,0.0084,0.0046,0.0046,0.0045,0.0015,0.0015,0.0014,0.0014,-0.0052,-0.0054,-0.0056,0,0,0,0,0,0,0,0,0,0,0,0,0,0.008,0.0101,0.0084,0.0065,0.0063,0.0046,0.0046,0.0045,0.0015,0.0015,0.0014,0.0014,-0.0051,-0.0054,-0.0056,-0.0066,0,0,-0.0063,-0.0064,0,0,0,0,0,0,0,0,0.0081,0.0079,0.0068,0.0067,0.0064,0.0036,0.0027,0.0007,0.0015,0.0032,0.0014,0.0014,-0.0024,-0.0029,-0.0037,-0.0069,-0.0072,-0.0064,-0.0065,-0.0066,-0.0067,0,0,0,0,0,0,0,0.0083,0.008,0.0068,0.0068,0.0066,0.0048,0.0045,0.0023,0.0004,0.003,0.0028,0.0026,-0.0026,-0.0035,-0.0039,-0.0073,-0.0063,-0.0066,-0.0067,-0.0068,-0.0108,-0.0108,0,0,0,0,0,0,0.0092,0.0082,0.0069,0.0067,0.0074,0.0048,0.0045,0.0044,0.0005,-0.0001,0.0027,0.0025,-0.003,-0.0036,-0.0041,-0.004,-0.0066,-0.0068,-0.007,-0.0109,-0.0108,-0.0108,0,0,0,0,0,0,0.0093,0.0091,0.0071,0.0075,0.0071,0.0049,0.0048,0.0044,0.0037,0.0003,-0.0004,0.0025,-0.0031,-0.0038,-0.0052,-0.0043,-0.0069,-0.0072,-0.0109,-0.0109,-0.0108,-0.0047,0,0,0,0,0,0,0.0093,0.0092,0.0096,0.0075,0.0071,0.0067,0.0048,0.0043,0.0037,0.0034,-0.0001,-0.0008,-0.0032,-0.0048,-0.0054,-0.0047,-0.0073,-0.011,-0.0109,-0.0108,-0.0049,-0.0044,-0.004,0,0,0,0,0,0.0094,0.0103,0.0096,0.0095,0.0077,0.0068,0.0064,0.0046,0.0037,0.0038,0.0018,-0.0006,-0.0048,-0.0049,-0.0057,-0.005,-0.011,-0.0109,-0.0108,-0.0051,-0.0045,-0.004,0,0,0,0,0,0,0.0112,0.0101,0.0093,0.0098,0.0086,0.0063,0.0064,0.0051,0.0035,0.0034,-0.0,-0.0008,-0.0019,-0.0042,-0.0043,-0.006,-0.0084,-0.0084,-0.0038,-0.0032,-0.0027,-0.0011,-0.0075,0,0,0,0,0,0.0118,0.0123,0.0107,0.0111,0.0108,0.0087,0.0081,0.007,0.0054,0.0046,0.0021,-0.0003,-0.0021,-0.0032,-0.0054,-0.0062,-0.009,-0.0063,-0.0059,-0.0054,-0.0046,-0.0083,-0.0081,-0.0105,-0.0105,-0.0105,0,0,0.0127,0.0122,0.0124,0.0116,0.0105,0.0111,0.0083,0.0081,0.0087,0.0042,0.004,0.0012,-0.002,-0.0028,-0.0035,-0.0046,-0.0062,-0.0053,-0.0049,-0.0044,-0.0082,-0.008,-0.0078,-0.0104,-0.0105,-0.0105,0,0,0.015,0.0142,0.0155,0.0149,0.0141,0.0131,0.0133,0.0114,0.0106,0.01,0.0072,0.0052,0.0021,0.0002,-0.0011,0.0006,-0.0037,-0.0004,0.0034,-0.0002,0.0,0.0001,-0.003,-0.0032,-0.0001,-0.0,-0.0,0,0.0161,0.0174,0.0157,0.0167,0.0171,0.0145,0.0161,0.0151,0.013,0.0126,0.0109,0.0067,0.0037,0.003,0.0037,0.0017,-0.001,0.0017,0.0005,0.0006,0.0006,-0.0026,-0.0029,0.0003,0.0002,0.0002,0.0002,0,0.019,0.0203,0.021,0.0218,0.022,0.0228,0.0217,0.0216,0.0202,0.0184,0.0169,0.0129,0.0104,0.009,0.0069,0.006,0.0038,0.0015,-0.0007,0.0012,-0.0023,-0.0028,0.0007,0.0006,0.0005,0.0004,0,0,0.0212,0.0229,0.0233,0.025,0.0248,0.0256,0.0269,0.027,0.028,0.0248,0.0253,0.0214,0.0183,0.0166,0.0132,0.0103,0.0079,0.0066,0.0063,0.0041,0.0002,-0.001,-0.0016,0.0051,0.0051,0.0051,-0.0022,0,0.0241,0.0278,0.0277,0.0317,0.0337,0.0325,0.0345,0.0341,0.0323,0.0319,0.0274,0.0261,0.0215,0.0206,0.0169,0.0103,0.007,0.0101,-0.0017,-0.002,-0.0029,-0.0021,0.0049,-0.0025,-0.0026,-0.0027,-0.0027,0,0.0272,0.0295,0.0338,0.0377,0.0385,0.0405,0.0428,0.0441,0.0425,0.0409,0.0378,0.0336,0.0298,0.0254,0.015,0.0171,0.0096,0.0038,0.0034,-0.0001,-0.004,-0.005,-0.0036,-0.0035,-0.0035,-0.0034,-0.0034,0,0.03,0.034,0.038,0.0389,0.0425,0.0447,0.0468,0.0467,0.0487,0.0463,0.0467,0.04,0.0379,0.0276,0.0157,0.0152,0.0037,0.0009,-0.0074,-0.0076,-0.0071,-0.0072,-0.0068,-0.0068,-0.0068,-0.0067,-0.0067,0,0.0329,0.0363,0.0399,0.042,0.048,0.0489,0.0539,0.0544,0.0557,0.0587,0.0518,0.0518,0.0383,0.03,0.018,0.0045,0.0048,-0.0063,-0.0094,-0.0043,-0.004,-0.0074,-0.0074,-0.007,-0.007,-0.0069,-0.0069,0,0.0349,0.037,0.0423,0.0472,0.0495,0.0536,0.0598,0.0631,0.0635,0.0673,0.0673,0.0607,0.0498,0.0353,0.0187,0.0083,-0.0053,-0.0106,-0.0031,-0.0058,-0.0148,-0.0144,-0.0202,-0.0203,-0.0204,-0.0204,-0.0205,0,0.0359,0.0389,0.0461,0.0499,0.0523,0.0585,0.0634,0.0667,0.0702,0.0727,0.0749,0.0667,0.0601,0.0367,0.0199,-0.0032,-0.0071,-0.0145,-0.0155,-0.0136,-0.0161,-0.0156,-0.0151,-0.0206,-0.0206,-0.0207,-0.0207,0,0.038,0.0407,0.0449,0.053,0.0589,0.0661,0.0729,0.0762,0.0808,0.0819,0.0811,0.0695,0.0573,0.0377,0.0197,0.0029,-0.0099,-0.0155,-0.0155,-0.0164,-0.0143,-0.0165,-0.0159,-0.021,-0.0209,-0.0209,-0.0209,0,0.0394,0.0423,0.0482,0.0553,0.0635,0.0712,0.0748,0.0797,0.0838,0.0865,0.086,0.0731,0.0659,0.0409,0.0244,0.0076,0.0025,-0.0039,-0.0045,-0.0044,0.0016,0.0067,0.0043,0,0,0,0,0,0.0402,0.0434,0.0499,0.0579,0.0664,0.0714,0.0803,0.0833,0.088,0.0885,0.0877,0.0764,0.0532,0.043,0.0261,0.0203,-0.0021,-0.0004,-0.0101,-0.0226,-0.0223,-0.0181,0,0,0,0,0,0,0.0403,0.046,0.0492,0.0591,0.0649,0.0745,0.0806,0.0841,0.0841,0.0864,0.0743,0.0707,0.0476,0.0628,0.0253,0.0203,0.0114,-0.0106,-0.0111,-0.0228,-0.0225,-0.0222,-0.0178,0,0,0,0,0]}]]